Weather History for Juneau, WI

Change the Weather History Date:

Thursday, April 4, 2013

  Actual Average Record
Temperature  
Mean Temperature 42 °F -  
Max Temperature 53 °F 48 °F 73 °F (1997)
Min Temperature 30 °F 31 °F 12 °F (1982)
Degree Days  
Heating Degree Days 24    
Moisture  
Dew Point 23 °F    
Average Humidity 51    
Maximum Humidity 70    
Minimum Humidity 33    
Precipitation  
Precipitation 0.00 in - - ()
Sea Level Pressure  
Sea Level Pressure 30.08 in    
Wind  
Wind Speed 11 mph (SW)    
Max Wind Speed 22 mph    
Max Gust Speed 26 mph    
Visibility 10 miles    
Events      
Averages and records for this station are not official NWS values.
T = Trace of Precipitation, MM = Missing Value Source: NWS Daily Summary

Daily Weather History Graph

Daily Weather History Graph

Search for Another Location

Airport:

Trip Planner

Search our weather history database for the weather conditions in past years. The results will help you decide how hot, cold, wet, or windy it might be!

Date:

Astronomy

Apr. 04, 2013 Rise Set
Actual Time 6:30 AM CDT 7:25 PM CDT
Civil Twilight 6:01 AM CDT 7:54 PM CDT
Nautical Twilight 5:27 AM CDT 8:29 PM CDT
Astronomical Twilight 4:51 AM CDT 9:05 PM CDT
Moon 3:07 AM CDT (4/4) 1:34 PM CDT (4/4)
Length of Visible Light 13h 52m
Length of Day
12h 54m
Waning Crescent, 33% of the Moon is Illuminated
Apr 4
Waning Crescent
Apr 10
New
Apr 18
First Quarter
Apr 25
Full
May 2
Last Quarter

Hourly Weather History & Observations

Time (CDT) Temp. Windchill Dew Point Humidity Pressure Visibility Wind Dir Wind Speed Gust Speed Precip Events Conditions
12:15 AM 30.2 °F 21.3 °F 17.6 °F 60% 30.26 in 10.0 mi SSE 10.4 mph - N/A   Clear
12:35 AM 30.2 °F 21.9 °F 17.6 °F 60% 30.26 in 10.0 mi South 9.2 mph - N/A   Clear
12:55 AM 30.2 °F 20.2 °F 17.6 °F 60% 30.25 in 10.0 mi South 12.7 mph - N/A   Clear
1:15 AM 30.2 °F 21.9 °F 15.8 °F 55% 30.24 in 10.0 mi South 9.2 mph - N/A   Clear
1:35 AM 30.2 °F 22.6 °F 17.6 °F 60% 30.24 in 10.0 mi South 8.1 mph - N/A   Clear
1:55 AM 30.2 °F 22.6 °F 17.6 °F 60% 30.23 in 10.0 mi South 8.1 mph - N/A   Clear
2:15 AM 30.2 °F 22.6 °F 17.6 °F 60% 30.22 in 10.0 mi South 8.1 mph - N/A   Clear
2:35 AM 30.2 °F 22.6 °F 17.6 °F 60% 30.21 in 10.0 mi South 8.1 mph - N/A   Clear
2:55 AM 30.2 °F 21.9 °F 17.6 °F 60% 30.20 in 10.0 mi South 9.2 mph - N/A   Clear
3:15 AM 30.2 °F 21.3 °F 17.6 °F 60% 30.19 in 10.0 mi South 10.4 mph - N/A   Clear
3:35 AM 32.0 °F 23.0 °F 15.8 °F 51% 30.19 in 10.0 mi South 11.5 mph - N/A   Clear
3:55 AM 32.0 °F 23.6 °F 15.8 °F 51% 30.19 in 10.0 mi South 10.4 mph - N/A   Clear
4:15 AM 32.0 °F 23.6 °F 15.8 °F 51% 30.18 in 10.0 mi South 10.4 mph - N/A   Clear
4:35 AM 32.0 °F 22.5 °F 15.8 °F 51% 30.18 in 10.0 mi South 12.7 mph - N/A   Clear
4:55 AM 32.0 °F 22.5 °F 17.6 °F 55% 30.18 in 10.0 mi South 12.7 mph - N/A   Clear
5:15 AM 32.0 °F 23.0 °F 17.6 °F 55% 30.18 in 10.0 mi SSW 11.5 mph - N/A   Clear
5:35 AM 30.2 °F 20.2 °F 17.6 °F 60% 30.18 in 10.0 mi SSW 12.7 mph - N/A   Clear
5:55 AM 30.2 °F 21.3 °F 17.6 °F 60% 30.17 in 10.0 mi South 10.4 mph - N/A   Clear
6:15 AM 30.2 °F 20.8 °F 17.6 °F 60% 30.17 in 10.0 mi South 11.5 mph - N/A   Clear
6:35 AM 30.2 °F 21.3 °F 17.6 °F 60% 30.15 in 10.0 mi SSW 10.4 mph - N/A   Clear
6:55 AM 32.0 °F 24.2 °F 19.4 °F 60% 30.15 in 10.0 mi South 9.2 mph - N/A   Clear
7:15 AM 32.0 °F 23.0 °F 19.4 °F 60% 30.15 in 10.0 mi South 11.5 mph - N/A   Clear
7:35 AM 32.0 °F 22.5 °F 19.4 °F 60% 30.15 in 10.0 mi SSW 12.7 mph - N/A   Clear
7:55 AM 32.0 °F 22.5 °F 19.4 °F 60% 30.14 in 10.0 mi SSW 12.7 mph - N/A   Clear
8:15 AM 33.8 °F 25.3 °F 19.4 °F 56% 30.14 in 10.0 mi SSW 11.5 mph - N/A   Clear
8:35 AM 33.8 °F 24.8 °F 19.4 °F 56% 30.13 in 10.0 mi SSW 12.7 mph - N/A   Clear
8:55 AM 35.6 °F 27.5 °F 21.2 °F 56% 30.12 in 10.0 mi SSW 11.5 mph - N/A   Clear
9:15 AM 37.4 °F 28.5 °F 21.2 °F 52% 30.10 in 10.0 mi SSW 15.0 mph - N/A   Clear
9:35 AM 37.4 °F 28.9 °F 21.2 °F 52% 30.09 in 10.0 mi SSW 13.8 mph - N/A   Clear
9:55 AM 41.0 °F 32.2 °F 19.4 °F 42% 30.09 in 10.0 mi SW 18.4 mph - N/A   Clear
10:15 AM 42.8 °F 34.5 °F 19.4 °F 39% 30.10 in 10.0 mi SW 18.4 mph 25.3 mph N/A   Clear
10:35 AM 42.8 °F 33.8 °F 19.4 °F 39% 30.09 in 10.0 mi SW 21.9 mph - N/A   Clear
10:55 AM 42.8 °F 34.3 °F 19.4 °F 39% 30.08 in 10.0 mi SW 19.6 mph 23.0 mph N/A   Clear
11:35 AM 46.4 °F 39.8 °F 21.2 °F 37% 30.06 in 10.0 mi SW 16.1 mph 20.7 mph N/A   Clear
11:55 AM 46.4 °F 39.5 °F 21.2 °F 37% 30.06 in 10.0 mi SW 17.3 mph - N/A   Clear
12:35 PM 48.2 °F - 23.0 °F 37% 30.04 in 10.0 mi SW 20.7 mph 24.2 mph N/A   Clear
12:55 PM 50.0 °F - 23.0 °F 35% 30.02 in 10.0 mi SW 19.6 mph 26.5 mph N/A   Clear
1:15 PM 51.8 °F - 23.0 °F 33% 30.01 in 10.0 mi SW 13.8 mph 24.2 mph N/A   Clear
1:35 PM 51.8 °F - 26.6 °F 38% 30.00 in 10.0 mi SSW 17.3 mph 21.9 mph N/A   Clear
1:55 PM 51.8 °F - 26.6 °F 38% 30.00 in 10.0 mi SW 17.3 mph 21.9 mph N/A   Clear
2:15 PM 53.6 °F - 24.8 °F 33% 29.98 in 10.0 mi SW 17.3 mph - N/A   Clear
2:35 PM 51.8 °F - 26.6 °F 38% 29.98 in 10.0 mi WSW 16.1 mph - N/A   Mostly Cloudy
2:55 PM 51.8 °F - 26.6 °F 38% 29.97 in 10.0 mi WSW 16.1 mph 21.9 mph N/A   Overcast
3:15 PM 51.8 °F - 28.4 °F 41% 29.97 in 10.0 mi WSW 12.7 mph - N/A   Overcast
3:35 PM 51.8 °F - 28.4 °F 41% 29.96 in 10.0 mi SW 12.7 mph - N/A   Light Drizzle
3:55 PM 51.8 °F - 28.4 °F 41% 29.95 in 10.0 mi WSW 11.5 mph - N/A   Overcast
4:15 PM 51.8 °F - 28.4 °F 41% 29.95 in 10.0 mi WSW 13.8 mph - N/A   Mostly Cloudy
4:35 PM 53.6 °F - 26.6 °F 35% 29.95 in 10.0 mi WSW 12.7 mph - N/A   Scattered Clouds
4:55 PM 53.6 °F - 26.6 °F 35% 29.95 in 10.0 mi WSW 11.5 mph 16.1 mph N/A   Scattered Clouds
5:15 PM 53.6 °F - 28.4 °F 38% 29.96 in 10.0 mi West 6.9 mph 16.1 mph N/A   Scattered Clouds
5:35 PM 51.8 °F - 28.4 °F 41% 29.96 in 10.0 mi WNW 5.8 mph 9.2 mph N/A   Clear
5:55 PM 51.8 °F - 30.2 °F 44% 29.96 in 10.0 mi West 8.1 mph - N/A   Clear
6:15 PM 50.0 °F - 30.2 °F 47% 29.97 in 10.0 mi WNW 8.1 mph - N/A   Clear
6:35 PM 50.0 °F - 28.4 °F 43% 29.97 in 10.0 mi WNW 8.1 mph - N/A   Clear
6:55 PM 48.2 °F - 28.4 °F 46% 29.98 in 10.0 mi WNW 5.8 mph - N/A   Clear
7:15 PM 46.4 °F 44.3 °F 28.4 °F 50% 29.97 in 10.0 mi WNW 4.6 mph - N/A   Clear
7:35 PM 46.4 °F 45.2 °F 28.4 °F 50% 29.98 in 10.0 mi WNW 3.5 mph - N/A   Clear
7:55 PM 44.6 °F 41.4 °F 28.4 °F 53% 29.98 in 10.0 mi NW 5.8 mph - N/A   Clear
8:15 PM 42.8 °F - 30.2 °F 61% 29.99 in 10.0 mi Calm Calm - N/A   Clear
8:35 PM 39.2 °F 37.0 °F 30.2 °F 70% 30.00 in 10.0 mi NNW 3.5 mph - N/A   Clear
8:55 PM 41.0 °F 38.0 °F 30.2 °F 65% 30.00 in 10.0 mi NW 4.6 mph - N/A   Clear
9:15 PM 41.0 °F 37.1 °F 28.4 °F 61% 30.01 in 10.0 mi NNW 5.8 mph - N/A   Clear
9:35 PM 41.0 °F 35.8 °F 26.6 °F 57% 30.02 in 10.0 mi NW 8.1 mph - N/A   Clear
9:55 PM 41.0 °F 35.8 °F 26.6 °F 57% 30.02 in 10.0 mi NW 8.1 mph - N/A   Clear
10:15 PM 41.0 °F 35.8 °F 26.6 °F 57% 30.03 in 10.0 mi NW 8.1 mph - N/A   Clear
10:35 PM 39.2 °F 33.6 °F 26.6 °F 61% 30.03 in 10.0 mi NW 8.1 mph - N/A   Clear
10:55 PM 37.4 °F 32.1 °F 24.8 °F 60% 30.03 in 10.0 mi NW 6.9 mph - N/A   Clear
11:15 PM 37.4 °F 30.8 °F 24.8 °F 60% 30.03 in 10.0 mi NW 9.2 mph - N/A   Clear
11:35 PM 37.4 °F 30.8 °F 23.0 °F 56% 30.04 in 10.0 mi NW 9.2 mph - N/A   Clear
11:55 PM 37.4 °F 30.8 °F 23.0 °F 56% 30.04 in 10.0 mi NW 9.2 mph - N/A   Clear